PAKSAT-MM1

Last updated on Fri Oct 04 2024 00:02:43 GMT+0000 (Coordinated Universal Time)

1 59915U 24104A 24276.83938337 .00000156 00000+0 00000+0 0 9995 2 59915 0.0135 165.8987 0001343 136.6157 49.8990 1.00266867 1358
UTC large
Height (km)
Speed (km/s)
/
Latitude / Longitude
Inclination (degrees)
Orbital Period (minutes)
Azimuth
Elevation
Range (km)
Doppler Factor

Next 0 passes for location: London (51.5072 / 0.1276)

Sorry there are no passes over London.